EW6058 Weather Reports


Display with metric or nautical units.
time (UTC)temp
F
wind
direction
speed
MPH
gust
MPH
rain 1hr
in
rain 24hr
in
rain mn
in
humidity
%
barometer
mb
20260906212513 65 333 0.0 0.0 0.00 0.00 0.00 70 1015.2
20260906212014 65 333 0.0 0.0 0.00 0.00 0.00 71 1015.1
20260906211528 65 333 0.0 0.0 0.00 0.00 0.00 67 1015.1
20260906211015 65 338 0.0 0.0 0.00 0.00 0.00 72 1015.0
20260906210519 65 338 0.0 0.0 0.00 0.00 0.00 71 1015.0
20260906210040 65 338 0.0 0.0 0.00 0.00 0.00 70 1015.1
20260906205517 65 330 0.0 0.0 0.00 0.00 0.00 68 1015.1
20260906205014 65 295 0.0 0.0 0.00 0.00 0.00 1015.0
20260906204530 65 295 0.0 0.0 0.00 0.00 0.00 1014.9
20260906204022 65 295 0.0 0.0 0.00 0.00 0.00 1014.9
20260906203508 65 289 0.0 0.0 0.00 0.00 0.00 74 1014.9
20260906203019 65 289 0.0 0.0 0.00 0.00 0.00 74 1014.8
20260906202519 65 289 0.0 0.0 0.00 0.00 0.00 72 1014.8
20260906202003 66 300 0.0 0.0 0.00 0.00 0.00 71 1014.7
20260906201505 66 300 0.0 0.0 0.00 0.00 0.00 73 1014.8
20260906201017 66 300 0.0 0.0 0.00 0.00 0.00 71 1014.7
20260906200503 66 300 0.0 0.0 0.00 0.00 0.00 71 1014.7
20260906200028 66 306 0.0 0.0 0.00 0.00 0.00 71 1014.7
20260906195504 66 319 0.0 0.0 0.00 0.00 0.00 72 1014.6
20260906195003 66 253 0.0 0.0 0.00 0.00 0.00 71 1014.6
20260906194530 66 232 0.0 0.0 0.00 0.00 0.00 71 1014.6
20260906194006 66 293 0.0 0.0 0.00 0.00 0.00 73 1014.6
20260906193508 66 333 0.0 0.0 0.00 0.00 0.00 70 1014.6
20260906193031 66 317 0.0 0.0 0.00 0.00 0.00 69 1014.5
20260906192510 67 49 0.0 0.0 0.00 0.00 0.00 69 1014.5
20260906192018 67 316 0.0 0.0 0.00 0.00 0.00 69 1014.6
20260906191519 67 356 0.0 0.0 0.00 0.00 0.00 70 1014.6
20260906191013 66 332 0.0 0.0 0.00 0.00 0.00 72 1014.6
20260906190504 66 282 0.0 0.0 0.00 0.00 0.00 71 1014.5
20260906190002 66 349 0.0 0.0 0.00 0.00 0.00 71 1014.6
20260906185503 66 8 0.0 0.0 0.00 0.00 0.00 71 1014.6
20260906185004 66 281 0.0 0.0 0.00 0.00 0.00 69 1014.6
20260906184506 66 321 0.0 0.0 0.00 0.00 0.00 68 1014.5
20260906184003 66 297 0.0 0.0 0.00 0.00 0.00 71 1014.6
20260906183511 67 297 0.0 0.0 0.00 0.00 0.00 70 1014.6
20260906183014 67 297 0.0 0.0 0.00 0.00 0.00 69 1014.7
20260906182512 67 4 0.0 0.0 0.00 0.00 0.00 72 1014.8
20260906182010 67 315 0.0 0.0 0.00 0.00 0.00 70 1014.8
20260906181530 67 63 0.0 0.0 0.00 0.00 0.00 68 1014.9
20260906181013 67 262 0.0 0.0 0.00 0.00 0.00 67 1014.9
20260906180512 67 270 0.0 0.0 0.00 0.00 0.00 67 1014.8
20260906180024 67 243 0.0 0.0 0.00 0.00 0.00 66 1014.9
20260906175515 67 304 0.0 0.0 0.00 0.00 0.00 65 1014.8
20260906175004 67 16 0.0 0.0 0.00 0.00 0.00 64 1014.9
20260906174506 67 336 0.0 0.0 0.00 0.00 0.00 66 1014.9
20260906174003 67 217 0.0 0.0 0.00 0.00 0.00 65 1015.0
20260906173504 67 300 0.0 0.0 0.00 0.00 0.00 64 1015.0
20260906173008 68 311 0.0 0.0 0.00 0.00 0.00 66 1015.0
20260906172507 68 336 0.0 0.0 0.00 0.00 0.00 64 1015.0
20260906172010 68 316 0.0 0.0 0.00 0.00 0.00 63 1015.0
20260906171517 68 319 0.0 0.0 0.00 0.00 0.00 64 1015.1
20260906171016 68 60 0.0 0.0 0.00 0.00 0.00 64 1015.0
20260906170511 68 35 0.0 0.0 0.00 0.00 0.00 66 1015.0
20260906170022 68 313 0.0 0.0 0.00 0.00 0.00 66 1015.0
20260906165514 68 37 0.0 0.0 0.00 0.00 0.00 66 1015.0
20260906165016 68 301 0.0 0.0 0.00 0.00 0.00 66 1015.0
20260906164526 68 7 0.0 0.0 0.00 0.00 0.00 68 1015.0
20260906164016 68 273 0.0 0.0 0.00 0.00 0.00 66 1015.0
20260906163503 68 315 0.0 0.0 0.00 0.00 0.00 68 1015.0
20260906163005 68 57 0.0 0.0 0.00 0.00 0.00 66 1015.0
20260906162504 68 44 0.0 0.0 0.00 0.00 0.00 66 1015.1
20260906162008 68 21 0.0 0.0 0.00 0.00 0.00 66 1015.1
20260906161512 68 290 0.0 0.0 0.00 0.00 0.00 66 1015.1
20260906161009 68 320 0.0 0.0 0.00 0.00 0.00 67 1015.1
20260906160511 68 304 0.0 0.0 0.00 0.00 0.00 66 1015.2
20260906160030 68 359 0.0 0.0 0.00 0.00 0.00 66 1015.2
20260906155512 68 57 0.0 0.0 0.00 0.00 0.00 67 1015.2
20260906155015 68 278 0.0 0.0 0.00 0.00 0.00 66 1015.2
20260906154539 68 333 0.0 0.0 0.00 0.00 0.00 68 1015.2
20260906154013 68 278 0.0 0.0 0.00 0.00 0.00 66 1015.1
20260906153518 68 280 0.0 0.0 0.00 0.00 0.00 68 1015.2
20260906153039 68 311 0.0 0.0 0.00 0.00 0.00 70 1015.1
20260906152516 68 34 0.0 0.0 0.00 0.00 0.00 68 1015.1
20260906152004 68 275 0.0 0.0 0.00 0.00 0.00 69 1015.2
20260906151508 68 289 0.0 0.0 0.00 0.00 0.00 70 1015.1
20260906151008 68 343 0.0 0.0 0.00 0.00 0.00 71 1015.1
20260906150508 68 286 0.0 0.0 0.00 0.00 0.00 69 1015.0
20260906150019 68 306 0.0 0.0 0.00 0.00 0.00 68 1015.1
20260906145511 68 310 0.0 0.0 0.00 0.00 0.00 67 1015.2
20260906145011 68 274 0.0 0.0 0.00 0.00 0.00 66 1015.1
20260906144523 68 317 0.0 0.0 0.00 0.00 0.00 66 1015.1
20260906144016 67 298 0.0 0.0 0.00 0.00 0.00 70 1015.2
20260906143512 67 310 0.0 0.0 0.00 0.00 0.00 69 1015.1
20260906143032 67 297 0.0 0.0 0.00 0.00 0.00 72 1015.0
20260906142517 66 27 0.0 0.0 0.00 0.00 0.00 76 1015.0
20260906142016 65 315 0.0 0.0 0.00 0.00 0.00 79 1015.0
20260906141530 64 359 0.0 0.0 0.00 0.00 0.00 78 1015.1
20260906141005 64 255 0.0 0.0 0.00 0.00 0.00 82 1015.1
20260906140512 64 238 0.0 0.0 0.00 0.00 0.00 82 1015.2
20260906140012 64 266 0.0 0.0 0.00 0.00 0.00 82 1015.1
20260906135508 63 323 0.0 0.0 0.00 0.00 0.00 82 1015.1
20260906135011 63 229 0.0 0.0 0.00 0.00 0.00 84 1015.1
20260906134518 63 229 0.0 0.0 0.00 0.00 0.00 83 1015.1
20260906134010 63 297 0.0 0.0 0.00 0.00 0.00 84 1015.1
20260906133515 63 323 0.0 0.0 0.00 0.00 0.00 82 1014.9
20260906133023 63 309 0.0 0.0 0.00 0.00 0.00 82 1014.9
20260906132514 63 299 0.0 0.0 0.00 0.00 0.00 83 1014.9
20260906132014 63 271 0.0 0.0 0.00 0.00 0.00 84 1014.9
20260906131529 62 303 0.0 0.0 0.00 0.00 0.00 85 1014.8
20260906131016 62 290 0.0 0.0 0.00 0.00 0.00 86 1014.9
20260906130518 62 290 0.0 0.0 0.00 0.00 0.00 86 1014.9
20260906130041 61 1 0.0 0.0 0.00 0.00 0.00 88 1014.9
20260906125507 61 55 0.0 0.0 0.00 0.00 0.00 87 1014.9
20260906125006 61 55 0.0 0.0 0.00 0.00 0.00 88 1014.9
20260906124518 61 55 0.0 0.0 0.00 0.00 0.00 89 1014.9
20260906124011 61 55 0.0 0.0 0.00 0.00 0.00 89 1014.8
20260906123510 60 55 0.0 0.0 0.00 0.00 0.00 90 1014.8
20260906123026 60 55 0.0 0.0 0.00 0.00 0.00 89 1014.9
20260906122512 60 55 0.0 0.0 0.00 0.00 0.00 90 1014.9
20260906122014 60 55 0.0 0.0 0.00 0.00 0.00 91 1014.8
20260906121527 60 55 0.0 0.0 0.00 0.00 0.00 91 1014.7
20260906121015 60 55 0.0 0.0 0.00 0.00 0.00 91 1014.7
20260906120516 60 55 0.0 0.0 0.00 0.00 0.00 91 1014.7
20260906120030 60 55 0.0 0.0 0.00 0.00 0.00 91 1014.7
20260906115521 60 55 0.0 0.0 0.00 0.00 0.00 91 1014.5
20260906115014 59 55 0.0 0.0 0.00 0.00 0.00 91 1014.5
20260906114534 59 55 0.0 0.0 0.00 0.00 0.00 91 1014.4
20260906114011 59 55 0.0 0.0 0.00 0.00 0.00 91 1014.4
20260906113510 59 55 0.0 0.0 0.00 0.00 0.00 91 1014.4
20260906113027 59 55 0.0 0.0 0.00 0.00 0.00 91 1014.3
20260906112512 59 55 0.0 0.0 0.00 0.00 0.00 91 1014.4
20260906112005 59 55 0.0 0.0 0.00 0.00 0.00 92 1014.3
20260906111506 59 55 0.0 0.0 0.00 0.00 0.00 91 1014.3
20260906111003 59 55 0.0 0.0 0.00 0.00 0.00 91 1014.1
20260906110504 59 55 0.0 0.0 0.00 0.00 0.00 91 1013.9
20260906110011 59 55 0.0 0.0 0.00 0.00 0.00 91 1013.8
20260906105505 59 55 0.0 0.0 0.00 0.00 0.00 91 1013.7
20260906105006 59 55 0.0 0.0 0.00 0.00 0.00 91 1013.7
20260906104514 59 55 0.0 0.0 0.00 0.00 0.00 91 1013.7
20260906104008 59 55 0.0 0.0 0.00 0.00 0.00 91 1013.8
20260906103506 59 55 0.0 0.0 0.00 0.00 0.00 91 1013.7
20260906103012 59 55 0.0 0.0 0.00 0.00 0.00 91 1013.7
20260906102508 59 55 0.0 0.0 0.00 0.00 0.00 91 1013.5
20260906102009 59 55 0.0 0.0 0.00 0.00 0.00 91 1013.6
20260906101512 59 55 0.0 0.0 0.00 0.00 0.00 91 1013.5
20260906101009 59 55 0.0 0.0 0.00 0.00 0.00 91 1013.5
20260906100504 59 55 0.0 0.0 0.00 0.00 0.00 91 1013.5
20260906100004 59 55 0.0 0.0 0.00 0.00 0.00 91 1013.4
20260906095503 59 55 0.0 0.0 0.00 0.00 0.00 91 1013.4
20260906095003 60 55 0.0 0.0 0.00 0.00 0.00 91 1013.3
20260906094517 59 55 0.0 0.0 0.00 0.00 0.00 91 1013.3
20260906094004 60 55 0.0 0.0 0.00 0.00 0.00 91 1013.2
20260906093506 60 55 0.0 0.0 0.00 0.00 0.00 91 1013.2
20260906093012 60 55 0.0 0.0 0.00 0.00 0.00 91 1013.0
20260906092513 59 55 0.0 0.0 0.00 0.00 0.00 91 1013.1
20260906092010 59 55 0.0 0.0 0.00 0.00 0.00 91 1012.9
20260906091524 59 55 0.0 0.0 0.00 0.00 0.00 91 1012.9
20260906091010 59 55 0.0 0.0 0.00 0.00 0.00 91 1012.8
20260906090514 59 55 0.0 0.0 0.00 0.00 0.00 91 1012.8
20260906090017 59 55 0.0 0.0 0.00 0.00 0.00 91 1012.7
20260906085509 59 55 0.0 0.0 0.00 0.00 0.00 91 1012.8
20260906085005 59 55 0.0 0.0 0.00 0.00 0.00 91 1012.8
20260906084516 59 55 0.0 0.0 0.00 0.00 0.00 90 1012.8
20260906084004 59 55 0.0 0.0 0.00 0.00 0.00 91 1012.8
20260906083507 59 55 0.0 0.0 0.00 0.00 0.00 91 1012.8
20260906083014 59 55 0.0 0.0 0.00 0.00 0.00 91 1012.7
20260906082509 59 55 0.0 0.0 0.00 0.00 0.00 91 1012.5
20260906082010 59 55 0.0 0.0 0.00 0.00 0.00 91 1012.5
20260906081530 59 55 0.0 0.0 0.00 0.00 0.00 91 1012.4
20260906081009 59 55 0.0 0.0 0.00 0.00 0.00 91 1012.4
20260906080512 59 81 0.0 0.0 0.00 0.00 0.00 92 1012.4
20260906080017 59 81 0.0 0.0 0.00 0.00 0.00 92 1012.4
20260906075512 59 81 0.0 0.0 0.00 0.00 0.00 92 1012.4
20260906075012 59 81 0.0 0.0 0.00 0.00 0.00 92 1012.4
20260906074518 59 81 0.0 0.0 0.00 0.00 0.00 93 1012.4
20260906074012 59 81 0.0 0.0 0.00 0.00 0.00 93 1012.4
20260906073503 59 81 0.0 0.0 0.00 0.00 0.00 93 1012.4
20260906073008 59 81 0.0 0.0 0.00 0.00 0.00 93 1012.4
20260906072504 59 81 0.0 0.0 0.00 0.00 0.00 93 1012.4
20260906072005 58 81 0.0 0.0 0.00 0.00 0.00 93 1012.4
20260906071510 58 81 0.0 0.0 0.00 0.00 0.00 93 1012.4
20260906071011 58 81 0.0 0.0 0.00 0.00 0.00 93 1012.4
20260906070509 58 81 0.0 0.0 0.00 0.00 0.00 93 1012.4
20260906070017 58 81 0.0 0.0 0.00 0.00 0.00 93 1012.5
20260906065513 58 81 0.0 0.0 0.00 0.00 0.00 93 1012.5
20260906065015 58 81 0.0 0.0 0.00 0.00 0.00 93 1012.4
20260906064518 59 81 0.0 0.0 0.00 0.00 0.00 93 1012.4
20260906064012 59 81 0.0 0.0 0.00 0.00 0.00 93 1012.4
20260906063513 59 81 0.0 0.0 0.00 0.00 0.00 93 1012.4
20260906063023 59 81 0.0 0.0 0.00 0.00 0.00 93 1012.4
20260906062514 59 81 0.0 0.0 0.00 0.00 0.00 93 1012.4
20260906062005 59 81 0.0 0.0 0.00 0.00 0.00 93 1012.4
20260906061508 59 81 0.0 0.0 0.00 0.00 0.00 93 1012.5
20260906061008 59 81 0.0 0.0 0.00 0.00 0.00 94 1012.5
20260906060508 59 81 0.0 0.0 0.00 0.00 0.00 94 1012.6
20260906060015 59 81 0.0 0.0 0.00 0.00 0.00 94 1012.6
20260906055512 59 81 0.0 0.0 0.00 0.00 0.00 94 1012.6
20260906055012 59 81 0.0 0.0 0.00 0.00 0.00 94 1012.7
20260906054520 59 81 0.0 0.0 0.00 0.00 0.00 94 1012.7
20260906054014 58 81 0.0 0.0 0.00 0.00 0.00 94 1012.8
20260906053514 58 81 0.0 0.0 0.00 0.00 0.00 94 1012.8
20260906053030 58 81 0.0 0.0 0.00 0.00 0.00 94 1012.8
20260906052514 58 81 0.0 0.0 0.00 0.00 0.00 94 1012.8
20260906052016 58 81 0.0 0.0 0.00 0.00 0.00 94 1012.8
20260906051531 58 81 0.0 0.0 0.00 0.00 0.00 94 1012.8
20260906051018 58 81 0.0 0.0 0.00 0.00 0.00 94 1012.8
20260906050506 58 81 0.0 0.0 0.00 0.00 0.00 94 1012.7
20260906050026 58 81 0.0 0.0 0.00 0.00 0.00 94 1012.8
20260906045507 58 81 0.0 0.0 0.00 0.00 0.00 93 1012.8
20260906045010 58 81 0.0 0.0 0.00 0.00 0.00 93 1012.7
20260906044518 58 81 0.0 0.0 0.00 0.00 0.00 93 1012.6
20260906044012 58 81 0.0 0.0 0.00 0.00 0.00 93 1012.7
20260906043512 57 81 0.0 0.0 0.00 0.00 0.00 94 1012.6
20260906043027 57 81 0.0 0.0 0.00 0.00 0.00 93 1012.6
20260906042515 57 81 0.0 0.0 0.00 0.00 0.00 93 1012.6
20260906042013 57 81 0.0 0.0 0.00 0.00 0.00 93 1012.6
20260906041528 57 81 0.0 0.0 0.00 0.00 0.00 93 1012.6
20260906041017 57 81 0.0 0.0 0.00 0.00 0.00 93 1012.5
20260906040513 57 81 0.0 0.0 0.00 0.00 0.00 93 1012.5
20260906040028 57 81 0.0 0.0 0.00 0.00 0.00 93 1012.7
20260906035514 57 81 0.0 0.0 0.00 0.00 0.00 93 1012.6
20260906035009 57 81 0.0 0.0 0.00 0.00 0.00 93 1012.5
20260906034537 57 81 0.0 0.0 0.00 0.00 0.00 93 1012.6
20260906034011 57 81 0.0 0.0 0.00 0.00 0.00 93 1012.5
20260906033514 57 81 0.0 0.0 0.00 0.00 0.00 92 1012.6
20260906033025 57 81 0.0 0.0 0.00 0.00 0.00 92 1012.5
20260906032511 57 81 0.0 0.0 0.00 0.00 0.00 92 1012.6
20260906032014 57 81 0.0 0.0 0.00 0.00 0.00 92 1012.5
20260906031527 57 81 0.0 0.0 0.00 0.00 0.00 92 1012.5
20260906031019 57 81 0.0 0.0 0.00 0.00 0.00 92 1012.5
20260906030517 57 81 0.0 0.0 0.00 0.00 0.00 92 1012.5
20260906030028 57 81 0.0 0.0 0.00 0.00 0.00 92 1012.6
20260906025514 58 81 0.0 0.0 0.00 0.00 0.00 92 1012.6
20260906025017 58 81 0.0 0.0 0.00 0.00 0.00 92 1012.5
20260906024531 58 81 0.0 0.0 0.00 0.00 0.00 92 1012.6
20260906024016 58 81 0.0 0.0 0.00 0.00 0.00 92 1012.7
20260906023508 58 81 0.0 0.0 0.00 0.00 0.00 92 1012.5
20260906023018 58 81 0.0 0.0 0.00 0.00 0.00 91 1012.6
20260906022512 58 81 0.0 0.0 0.00 0.00 0.00 91 1012.6
20260906022005 58 81 0.0 0.0 0.00 0.00 0.00 91 1012.5
20260906021502 58 81 0.0 0.0 0.00 0.00 0.00 91 1012.5
20260906021003 58 81 0.0 0.0 0.00 0.00 0.00 91 1012.5
20260906020506 58 81 0.0 0.0 0.00 0.00 0.00 91 1012.5
20260906020004 58 81 0.0 0.0 0.00 0.00 0.00 91 1012.6
20260906015504 58 81 0.0 0.0 0.00 0.00 0.00 91 1012.6
20260906015005 58 81 0.0 0.0 0.00 0.00 0.00 91 1012.7
20260906014510 59 81 0.0 0.0 0.00 0.00 0.00 91 1012.7
20260906014005 59 81 0.0 0.0 0.00 0.00 0.00 91 1012.7
20260906013506 59 81 0.0 0.0 0.00 0.00 0.00 91 1012.5
20260906013012 59 81 0.0 0.0 0.00 0.00 0.00 91 1012.5
20260906012508 59 81 0.0 0.0 0.00 0.00 0.00 91 1012.5
20260906012012 59 81 0.0 0.0 0.00 0.00 0.00 91 1012.5
20260906011520 59 81 0.0 0.0 0.00 0.00 0.00 91 1012.5
20260906011012 59 81 0.0 0.0 0.00 0.00 0.00 91 1012.3
20260906010507 59 81 0.0 0.0 0.00 0.00 0.00 90 1012.4
20260906010003 59 81 0.0 0.0 0.00 0.00 0.00 90 1012.4
20260906005501 59 81 0.0 0.0 0.00 0.00 0.00 90 1012.5
20260906005003 59 81 0.0 0.0 0.00 0.00 0.00 90 1012.5
20260906004504 59 81 0.0 0.0 0.00 0.00 0.00 89 1012.4
20260906004005 60 81 0.0 0.0 0.00 0.00 0.00 89 1012.3
20260906003509 60 81 0.0 0.0 0.00 0.00 0.00 89 1012.2
20260906003010 60 81 0.0 0.0 0.00 0.00 0.00 89 1012.2
20260906002508 60 81 0.0 0.0 0.00 0.00 0.00 89 1011.9
20260906002008 60 81 0.0 0.0 0.00 0.00 0.00 88 1011.9
20260906001514 60 81 0.0 0.0 0.00 0.00 0.00 88 1011.9
20260906001010 61 81 0.0 0.0 0.00 0.00 0.00 88 1011.9
20260906000518 61 81 0.0 0.0 0.00 0.00 0.00 88 1012.0
20260906000028 61 81 0.0 0.0 0.00 0.00 0.00 88 1012.0
20260905235515 61 81 0.0 0.0 0.00 0.00 0.00 87 1012.0
20260905235002 61 81 0.0 0.0 0.00 0.00 0.00 87 1011.9
20260905234504 61 81 0.0 0.0 0.00 0.00 0.00 87 1011.9
20260905234007 62 81 0.0 0.0 0.00 0.00 0.00 87 1012.0
20260905233508 62 81 0.0 0.0 0.00 0.00 0.00 86 1012.0
20260905233012 62 81 0.0 0.0 0.00 0.00 0.00 86 1011.9
20260905232514 62 81 0.0 0.0 0.00 0.00 0.00 86 1011.8
20260905232008 62 81 0.0 0.0 0.00 0.00 0.00 85 1011.9
20260905231510 63 81 0.0 0.0 0.00 0.00 0.00 85 1011.9
20260905231011 63 81 0.0 0.0 0.00 0.00 0.00 85 1011.9
20260905230509 63 81 0.0 0.0 0.00 0.00 0.00 85 1011.9
20260905230017 63 81 0.0 0.0 0.00 0.00 0.00 85 1011.9
20260905225517 63 81 0.0 0.0 0.00 0.00 0.00 83 1011.8
20260905225014 63 81 0.0 0.0 0.00 0.00 0.00 83 1011.8
20260905224525 64 81 0.0 0.0 0.00 0.00 0.00 83 1011.8
20260905224019 64 81 0.0 0.0 0.00 0.00 0.00 83 1011.7
20260905223503 64 81 0.0 0.0 0.00 0.00 0.00 82 1011.8
20260905223004 64 81 0.0 0.0 0.00 0.00 0.00 81 1011.8
20260905222506 64 259 0.0 0.0 0.00 0.00 0.00 80 1011.8
20260905222009 64 239 0.0 0.0 0.00 0.00 0.00 80 1011.8
20260905221508 64 321 0.0 0.0 0.00 0.00 0.00 80 1011.6
20260905221010 64 259 0.0 0.0 0.00 0.00 0.00 80 1011.4
20260905220509 64 293 0.0 0.0 0.00 0.00 0.00 80 1011.3
20260905220017 64 346 0.0 0.0 0.00 0.00 0.00 80 1011.1
20260905215512 65 283 0.0 0.0 0.00 0.00 0.00 80 1011.1
20260905215011 65 308 0.0 0.0 0.00 0.01 0.00 80 1011.0
20260905214523 65 326 0.0 0.0 0.00 0.01 0.00 80 1011.1
20260905214014 65 314 0.0 0.0 0.00 0.01 0.00 81 1011.0
20260905213516 66 347 0.0 0.0 0.00 0.01 0.00 82 1010.9
20260905213025 66 323 0.0 0.0 0.00 0.01 0.00 82 1010.8